User: anonymous   Login
Location: Caltech
(34.1382°N, 118.1253°W)
Time: 07:21:15
(UTC-07:00)
Language:

AO-27 - Orbit

View from above orbital plane
View from above orbital plane
View from above satellite
View from above satellite

Ground track
Ground track

The orbit data is extracted from the following two-line orbital elements,

1 22825U 93061C   15087.11569725  .00000236  00000-0  10926-3 0  9997
2 22825 098.7004 037.2417 0008316 178.4810 309.2497 14.29853042121354
Epoch (UTC): 28 March 2015 02:46:36
Eccentricity: 0.0008316
inclination: 98.7004°
perigee height: 786 km
apogee height: 798 km
right ascension of ascending node: 37.2417°
argument of perigee: 178.4810°
revolutions per day: 14.29853042
mean anomaly at epoch: 309.2497°
orbit number at epoch: 12135

The dashed part of the orbit path shows where the satellite is in the earth's shadow,  

DLR